カタログに戻る

DIRECTV 7S

運用中通信GEO
NORAD 28238·PAYLOAD·🇺🇸 United States

打ち上げ May 4, 2004 から Sea Launch Platform

Loading…

TLE

最新Source: Space-Track

元期: Sep 14, 2026, 07:00 UTC

1 28238U 04016A   26257.29206439 -.00000134  00000-0  00000-0 0  9990
2 28238   5.3562  73.8215 0006412 107.6985 287.3174  0.98919514 81682

AllMySatでDIRECTV 7Sをリアルタイム追跡

Download on the App Store